Blackwell, OK

1:58 PM CST on February 08, 2016 (GMT -0600)
Blackwell

Weather History for KBKN - January, 2012

Change the Weather History Date:

Monday, January 30, 2012

  Actual Average (KPNC) Record (KPNC)
Temperature  
Mean Temperature 47 °F -  
Max Temperature 62 °F 51 °F 72 °F (1971)
Min Temperature 32 °F 26 °F -5 °F (1949)
Degree Days  
Heating Degree Days 18    
Moisture  
Dew Point 35 °F    
Average Humidity 66    
Maximum Humidity 87    
Minimum Humidity 39    
Precipitation  
Precipitation 0.00 in - - ()
Sea Level Pressure  
Sea Level Pressure 29.99 in    
Wind  
Wind Speed 10 mph (South)    
Max Wind Speed 23 mph    
Max Gust Speed 30 mph    
Visibility 10 miles    
Events Thunderstorm    
Averages and records for this station are not official NWS values.
T = Trace of Precipitation, MM = Missing Value Source: NWS Daily Summary

Daily Weather History Graph

Daily Weather History Graph

Search for Another Location

Airport or City:

Trip Planner

Search our weather history database for the weather conditions in past years. The results will help you decide how hot, cold, wet, or windy it might be!

Date:

Astronomy

Jan. 30, 2012 Rise Set
Actual Time 7:33 AM CST 5:52 PM CST
Civil Twilight 7:05 AM CST 6:19 PM CST
Nautical Twilight 6:34 AM CST 6:50 PM CST
Astronomical Twilight 6:04 AM CST 7:21 PM CST
Moon 11:09 AM CST (1/30) 12:24 AM CST (1/30)
Length of Visible Light 11h 13m
Length of Day
10h 19m
Waxing Crescent, 46% of the Moon is Illuminated
Jan 30
Waxing Crescent
Jan 30
First Quarter
Feb 7
Full
Feb 14
Last Quarter
Feb 21
New

Hourly Weather History & Observations

Time (CST) Temp. Windchill Dew Point Humidity Pressure Visibility Wind Dir Wind Speed Gust Speed Precip Events Conditions
12:15 AM 35.6 °F 28.0 °F 30.2 °F 81% 30.13 in 10.0 mi South 10.4 mph - N/A   Clear
12:35 AM 35.6 °F 28.0 °F 32.0 °F 87% 30.12 in 10.0 mi South 10.4 mph - N/A   Clear
12:55 AM 35.6 °F 28.6 °F 32.0 °F 87% 30.11 in 10.0 mi South 9.2 mph - N/A   Clear
1:15 AM 35.6 °F 29.2 °F 30.2 °F 81% 30.10 in 10.0 mi South 8.1 mph - N/A   Clear
1:35 AM 35.6 °F 31.7 °F 30.2 °F 81% 30.10 in 10.0 mi South 4.6 mph - N/A   Clear
1:55 AM 35.6 °F - 30.2 °F 81% 30.10 in 10.0 mi Calm Calm - N/A   Clear
2:15 AM 35.6 °F 31.7 °F 30.2 °F 81% 30.09 in 10.0 mi SE 4.6 mph - N/A Thunderstorm Clear
2:35 AM 35.6 °F 31.7 °F 30.2 °F 81% 30.09 in 10.0 mi SSE 4.6 mph - N/A   Clear
2:55 AM 35.6 °F 30.7 °F 28.4 °F 75% 30.08 in 10.0 mi SSE 5.8 mph - N/A   Clear
3:15 AM 32.0 °F 25.6 °F 28.4 °F 87% 30.07 in 10.0 mi South 6.9 mph - N/A   Clear
3:35 AM 32.0 °F 28.7 °F 28.4 °F 87% 30.06 in 10.0 mi SSE 3.5 mph - N/A   Clear
3:55 AM 32.0 °F - 28.4 °F 87% 30.06 in 10.0 mi Calm Calm - N/A   Clear
4:15 AM 33.8 °F 29.6 °F 28.4 °F 81% 30.05 in 10.0 mi SSE 4.6 mph - N/A   Clear
4:35 AM 32.0 °F 25.6 °F 28.4 °F 87% 30.05 in 10.0 mi SSE 6.9 mph - N/A   Clear
4:55 AM 33.8 °F 28.6 °F 28.4 °F 81% 30.04 in 10.0 mi SE 5.8 mph - N/A   Clear
5:15 AM 33.8 °F 28.6 °F 28.4 °F 81% 30.04 in 10.0 mi SSE 5.8 mph - N/A   Clear
5:35 AM 33.8 °F 27.7 °F 28.4 °F 81% 30.04 in 10.0 mi SSE 6.9 mph - N/A   Clear
6:15 AM 33.8 °F 28.6 °F 28.4 °F 81% 30.04 in 10.0 mi SSE 5.8 mph - N/A   Clear
6:35 AM 35.6 °F 29.9 °F 28.4 °F 75% 30.04 in 10.0 mi SSE 6.9 mph - N/A   Clear
6:55 AM 33.8 °F 28.6 °F 28.4 °F 81% 30.04 in 10.0 mi SE 5.8 mph - N/A   Clear
7:15 AM 33.8 °F 28.6 °F 28.4 °F 81% 30.05 in 10.0 mi SSE 5.8 mph - N/A   Clear
7:35 AM 35.6 °F 30.7 °F 30.2 °F 81% 30.05 in 10.0 mi SSE 5.8 mph - N/A   Clear
7:55 AM 33.8 °F 29.6 °F 30.2 °F 87% 30.05 in 10.0 mi SE 4.6 mph - N/A   Clear
8:15 AM 35.6 °F 32.8 °F 30.2 °F 81% 30.05 in 10.0 mi SE 3.5 mph - N/A   Clear
8:55 AM 41.0 °F 37.1 °F 33.8 °F 76% 30.05 in 10.0 mi SSE 5.8 mph - N/A   Clear
9:15 AM 44.6 °F 40.2 °F 35.6 °F 71% 30.04 in 10.0 mi South 8.1 mph - N/A   Clear
9:35 AM 46.4 °F 41.1 °F 35.6 °F 66% 30.04 in 10.0 mi South 11.5 mph - N/A   Clear
9:55 AM 48.2 °F - 37.4 °F 66% 30.04 in 10.0 mi South 10.4 mph - N/A   Clear
10:15 AM 50.0 °F - 37.4 °F 62% 30.03 in 10.0 mi South 15.0 mph - N/A   Clear
10:35 AM 51.8 °F - 37.4 °F 58% 30.03 in 10.0 mi South 15.0 mph - N/A   Clear
10:55 AM 53.6 °F - 37.4 °F 54% 30.02 in 10.0 mi South 16.1 mph - N/A   Clear
11:15 AM 55.4 °F - 37.4 °F 51% 30.01 in 10.0 mi South 16.1 mph - N/A   Clear
11:35 AM 57.2 °F - 37.4 °F 48% 30.00 in 10.0 mi South 18.4 mph - N/A   Clear
11:55 AM 57.2 °F - 37.4 °F 48% 29.99 in 10.0 mi South 21.9 mph - N/A   Clear
12:15 PM 57.2 °F - 37.4 °F 48% 29.98 in 10.0 mi South 17.3 mph - N/A   Clear
12:35 PM 59.0 °F - 37.4 °F 45% 29.97 in 10.0 mi South 18.4 mph - N/A   Clear
12:55 PM 60.8 °F - 37.4 °F 42% 29.96 in 10.0 mi South 16.1 mph 23.0 mph N/A   Clear
1:15 PM 62.6 °F - 39.2 °F 42% 29.95 in 10.0 mi South 17.3 mph 23.0 mph N/A   Clear
1:55 PM 62.6 °F - 37.4 °F 39% 29.92 in 10.0 mi South 23.0 mph 27.6 mph N/A   Clear
2:15 PM 62.6 °F - 39.2 °F 42% 29.91 in 10.0 mi South 21.9 mph 25.3 mph N/A   Clear
2:35 PM 62.6 °F - 39.2 °F 42% 29.90 in 10.0 mi South 20.7 mph 25.3 mph N/A   Clear
2:55 PM 62.6 °F - 41.0 °F 45% 29.89 in 10.0 mi South 20.7 mph 27.6 mph N/A   Clear
3:15 PM 62.6 °F - 41.0 °F 45% 29.89 in 10.0 mi South 23.0 mph 28.8 mph N/A   Clear
3:35 PM 62.6 °F - 41.0 °F 45% 29.89 in 10.0 mi South 21.9 mph 29.9 mph N/A   Clear
3:55 PM 62.6 °F - 41.0 °F 45% 29.88 in 10.0 mi South 23.0 mph 27.6 mph N/A   Clear
4:15 PM 60.8 °F - 41.0 °F 48% 29.88 in 10.0 mi South 20.7 mph 24.2 mph N/A   Clear
4:35 PM 60.8 °F - 41.0 °F 48% 29.88 in 10.0 mi South 20.7 mph 26.5 mph N/A   Clear
4:55 PM 59.0 °F - 41.0 °F 51% 29.88 in 10.0 mi South 18.4 mph - N/A   Clear
5:15 PM 59.0 °F - 41.0 °F 51% 29.86 in 10.0 mi South 20.7 mph 27.6 mph N/A   Clear
5:35 PM 59.0 °F - 41.0 °F 51% 29.87 in 10.0 mi South 17.3 mph - N/A   Clear
5:55 PM 57.2 °F - 41.0 °F 55% 29.87 in 10.0 mi South 13.8 mph - N/A   Clear
6:15 PM 53.6 °F - 41.0 °F 62% 29.88 in 10.0 mi South 10.4 mph - N/A   Clear
6:35 PM 50.0 °F - 39.2 °F 66% 29.89 in 10.0 mi South 10.4 mph - N/A   Clear
6:55 PM 50.0 °F - 41.0 °F 71% 29.89 in 10.0 mi South 11.5 mph - N/A   Clear
7:15 PM 51.8 °F - 41.0 °F 67% 29.89 in 10.0 mi South 11.5 mph - N/A   Clear
7:35 PM 51.8 °F - 41.0 °F 67% 29.89 in 10.0 mi South 9.2 mph - N/A   Clear
7:55 PM 51.8 °F - 42.8 °F 71% 29.89 in 10.0 mi South 9.2 mph - N/A   Clear
8:15 PM 51.8 °F - 44.6 °F 76% 29.89 in 10.0 mi South 10.4 mph - N/A   Clear
8:35 PM 53.6 °F - 44.6 °F 72% 29.89 in 10.0 mi SSE 13.8 mph 19.6 mph N/A   Clear
8:55 PM 53.6 °F - 44.6 °F 72% 29.89 in 10.0 mi SSE 15.0 mph 19.6 mph N/A   Clear
9:15 PM 53.6 °F - 44.6 °F 72% 29.89 in 10.0 mi SSE 16.1 mph - N/A   Clear
9:35 PM 53.6 °F - 44.6 °F 72% 29.89 in 10.0 mi SSE 15.0 mph 20.7 mph N/A   Clear
9:55 PM 53.6 °F - 44.6 °F 72% 29.88 in 10.0 mi SSE 13.8 mph - N/A   Clear
10:15 PM 53.6 °F - 44.6 °F 72% 29.88 in 10.0 mi SSE 12.7 mph 19.6 mph N/A   Clear
10:55 PM 51.8 °F - 44.6 °F 76% 29.88 in 10.0 mi SSE 12.7 mph 19.6 mph N/A   Clear
11:15 PM 53.6 °F - 46.4 °F 77% 29.88 in 10.0 mi SSE 16.1 mph 19.6 mph N/A   Clear
11:35 PM 53.6 °F - 46.4 °F 77% 29.88 in 10.0 mi South 15.0 mph 20.7 mph N/A   Clear
11:55 PM 53.6 °F - 48.2 °F 82% 29.88 in 10.0 mi South 16.1 mph - N/A   Clear